weather.gov     
National Weather Service

Regional Weather Roundup
NWS Homepage
This page is being discontinued on March 12, 2014.
The same data is available at this site. Please update your bookmarks.
Thank you, and we apologize for the inconvenience.
Please send an email to SR-SRH.Webmaster@noaa.gov with any concerns.


Current Version
Previous Version:    01  02  03  04  05  06  07  08  09  10  11  12  13  14  15  16  17  18  19  20  21  22  23  24  25  26  27  28  29  30  
   31  32  33  34  35  36  37  38  39  40  41  42  43  44  45  46  47  48  49  50  51  52  53  54  55  56  57  58  59  60  
[Printable]
736
ASUS44 KLIX 201810
RWRLA
LOUISIANA WEATHER ROUNDUP
NATIONAL WEATHER SERVICE NEW ORLEANS LA
100 PM CDT MON OCT 20 2014

NOTE: "FAIR" INDICATES FEW OR NO CLOUDS BELOW 12,000 FEET WITH NO
      SIGNIFICANT WEATHER AND/OR OBSTRUCTIONS TO VISIBILITY.
      SKY/WX - SKY CONDITION AND SIGNIFICANT WEATHER.
      TMP - AIR TEMPERATURE.    DP   - DEWPOINT TEMPERATURE.
      RH  - RELATIVE HUMIDITY.  PRES - PRESSURE.
      HX  - HEAT INDEX.         WCI  - WIND CHILL INDEX.

*  THESE STATIONS ARE NOT NWS OR FAA STATIONS AND ARE NOT UNDER
   NWS QUALITY CONTROL.

LAZ040-048-061>063-065-066-069-201900-
SOUTHEAST LOUISIANA

CITY           SKY/WX    TMP DP  RH WIND       PRES   REMARKS
N.O. AUDUBON     N/A     80  58  47 MISG        N/A
6HR MIN TEMP:  61; 6HR MAX TEMP:  81;

N.O. INTL ARPT MOSUNNY   77  56  48 N9        30.04F
6HR MIN TEMP:  59; 6HR MAX TEMP:  77;

N.O. LAKEFRONT SUNNY     76  57  51 N10       30.05F
6HR MIN TEMP:  67; 6HR MAX TEMP:  76;

N.O. DOWNTOWN* FAIR      77  54  44 CALM      30.04F
6HR MIN TEMP:  64; 6HR MAX TEMP:  79;

SLIDELL        MOSUNNY   76  52  43 CALM      30.04F
6HR MIN TEMP:  49; 6HR MAX TEMP:  76;

BATON ROUGE    MOSUNNY   77  51  40 N6        30.05F
6HR MIN TEMP:  52; 6HR MAX TEMP:  78;

BOOTHVILLE     MOSUNNY   79  63  57 VRB6      30.03F
6HR MIN TEMP:  69; 6HR MAX TEMP:  80;

BELLE CHASSE   PTSUNNY   78  59  51 E7        30.03F
6HR MIN TEMP:  55; 6HR MAX TEMP:  78;

BOGALUSA*        N/A     77  47  35 N5        30.06F
6HR MIN TEMP:  46; 6HR MAX TEMP:  77;

NEW ROADS*     FAIR      74  54  49 CALM      30.06F
6HR MIN TEMP:  51; 6HR MAX TEMP:  75;

GONZALES*      FAIR      76  56  49 CALM      30.04F
6HR MIN TEMP:  52; 6HR MAX TEMP:  77;

HAMMOND*       MOSUNNY   79  46  31 NE5       30.06F
HOUMA*         MOSUNNY   79  63  57 N3        30.04F
PORT FOURCHON* CLEAR     77  61  57 E8        30.06F

$$

LAZ041-044-053-054-201900-
SOUTHWEST LOUISIANA

CITY           SKY/WX    TMP DP  RH WIND       PRES   REMARKS
LAKE CHARLES   MOSUNNY   78  57  48 VRB6      30.05F
6HR MIN TEMP:  56; 6HR MAX TEMP:  78;

LAFAYETTE      SUNNY     77  56  48 MISG      30.05F
6HR MIN TEMP:  55; 6HR MAX TEMP:  77;

PATTERSON      NOT AVBL
SALT POINT       N/A     79  59  50 VRB5      30.02F
6HR MIN TEMP:  62; 6HR MAX TEMP:  79; 6HR PCP:  0.01;

NEW IBERIA     SUNNY     78  57  48 VRB7      30.05F
6HR MIN TEMP:  59; 6HR MAX TEMP:  79;

CHENAULT AIRPK MOSUNNY   75  59  57 VRB6      30.05F

$$

LAZ027-028-201900-
CENTRAL LOUISIANA

CITY           SKY/WX    TMP DP  RH WIND       PRES   REMARKS
FORT POLK      SUNNY     75  52  45 VRB5      30.06F
6HR MIN TEMP:  54; 6HR MAX TEMP:  75;

ALEXANDRIA INT SUNNY     75  50  41 N6        30.05F
6HR MIN TEMP:  47; 6HR MAX TEMP:  76;

ALEXANDRIA     SUNNY     76  52  43 VRB3      30.06F
6HR MIN TEMP:  45; 6HR MAX TEMP:  76;


$$

LAZ001-002-201900-
NORTHWEST LOUISIANA

CITY           SKY/WX    TMP DP  RH WIND       PRES   REMARKS
SHREVEPORT     MOSUNNY   73  52  47 N7        30.08F
6HR MIN TEMP:  49; 6HR MAX TEMP:  74;

BARKSDALE AFB  SUNNY     74  50  42 VRB2      30.09F
6HR MIN TEMP:  47; 6HR MAX TEMP:  74;

DTN SHREVEPORT SUNNY     73  52  47 NE5       30.09F
6HR MIN TEMP:  48; 6HR MAX TEMP:  73;


$$

LAZ014-016-201900-
NORTHEAST LOUISIANA

CITY           SKY/WX    TMP DP  RH WIND       PRES   REMARKS
MONROE         MOSUNNY   70  50  49 NW5       30.10F
6HR MIN TEMP:  46; 6HR MAX TEMP:  72;

TALLULAH       MOSUNNY   73  49  42 VRB6      30.08F
6HR MIN TEMP:  41; 6HR MAX TEMP:  73;


$$





U.S. Dept. of Commerce
NOAA National Weather Service
1325 East West Highway
Silver Spring, MD 20910
E-mail: w-nws.webmaster@noaa.gov
Page last modified: May 16, 2007
NATIONAL WEATHER SERVICE: for Safety, for Work, for Fun - FOR LIFE